[[{"header":{"parameterUnit":"m.s-1","parameterCategory":1,"la1":30.2991,"la2":30.254,"lo1":-89.0895,"lo2":-89.0444,"dy":0.0017,"dx":0.0017,"nx":28,"ny":28,"refTime":"2025-01-14T09:00:00:Z","depth":0,"parameterNumber":2,"parameterNumberName":"U-component_of_WINDS"},"data":[0,0,0,0,0,0,0,0,0,0,0,0,0,0,0,0,0,0,0,0,0,0,0,0,0,0,0,0,0,0,0,0,0,0,0,0,0,0,0,0,0,0,0,0,0,0,0,0,0,0,0,0,0,0,0,0,0,0,-2.4075,-2.4076,0,-2.4151,-2.4152,-2.4152,-2.4078,-2.4075,-2.4072,-2.4069,-2.415,-2.4154,-2.4159,0,0,0,0,0,0,0,0,0,0,0,0,0,-2.3866,-2.387,-2.4075,-2.4076,-2.4077,-2.4151,-2.4152,-2.4153,-2.4078,-2.4074,-2.4071,-2.4067,-2.4148,-2.4154,-2.416,0,0,0,0,0,0,0,0,0,0,0,0,0,-2.3951,-2.3872,-2.4074,-2.4048,-2.4047,-2.415,-2.4152,-2.4153,-2.4079,-2.4074,-2.407,-2.4066,-2.4146,-2.4153,-2.416,-2.4295,0,0,-2.4183,-2.4186,0,0,0,0,0,0,0,0,-2.3946,-2.3959,-2.4051,-2.405,-2.4049,-2.41,-2.4108,-2.4201,-2.408,-2.4067,-2.4069,-2.4064,-2.4137,-2.4145,-2.4169,-2.4299,-2.4302,-2.4184,-2.4188,-2.4191,-2.4193,0,0,0,0,0,0,0,-2.3941,-2.3955,-2.4105,-2.4053,-2.4051,-2.4033,-2.404,-2.4125,-2.4126,-2.4068,-2.4062,-2.4072,-2.4135,-2.4162,-2.417,-2.4303,-2.4183,-2.419,-2.4194,-2.4197,-2.4547,-2.4552,0,0,0,0,0,0,-2.3937,-2.3951,-2.4102,-2.4107,-2.3985,-2.404,-2.4048,-2.4088,-2.4125,-2.4126,-2.4076,-2.4068,-2.4151,-2.4162,-2.4173,-2.4334,-2.4191,-2.4198,-2.4202,-2.4542,-2.4548,-2.4553,0,0,0,0,0,0,-2.3933,-2.3952,-2.4099,-2.4027,-2.4045,-2.4049,-2.4094,-2.4092,-2.4118,-2.4131,-2.4131,-2.4103,-2.4148,-2.4162,-2.4265,-2.4335,-2.4201,-2.4208,-2.4537,-2.4544,-2.4551,-2.4656,0,0,0,0,0,0,-2.3927,-2.395,-2.4002,-2.4029,-2.4049,-2.419,-2.4098,-2.4097,-2.4131,-2.4122,-2.4156,-2.4158,-2.4146,-2.4254,-2.4272,-2.4343,-2.4214,-2.453,-2.454,-2.4549,-2.4646,-2.4666,-2.4683,0,0,0,0,0,-2.392,-2.4029,-2.4005,-2.4023,-2.4113,-2.4195,-2.4206,-2.419,-2.4137,-2.4189,-2.4196,-2.4157,-2.4324,-2.4265,-2.4285,-2.4359,-2.4526,-2.4537,-2.4548,-2.4638,-2.4662,-2.4682,0,0,0,0,0,0,-2.4011,-2.4032,-2.4005,-2.4126,-2.4159,-2.4182,-2.4247,-2.4215,-2.4265,-2.4254,-2.4232,-2.4241,-2.4349,-2.4364,-2.4298,-2.4491,-2.4416,-2.4432,-2.4478,-2.4501,-2.4519,-2.4515,-2.422,0,0,0,0,0,-2.4044,-2.4108,-2.4123,-2.4228,-2.4246,-2.4243,-2.4278,-2.4262,-2.4296,-2.431,-2.4325,-2.436,-2.442,-2.4461,-2.4517,-2.4646,-2.4654,-2.4707,-2.4725,-2.474,-2.4755,-2.4825,-2.4849,-2.459,-2.4589,-2.4589,0,0,-2.4115,-2.4134,-2.4177,-2.4247,-2.427,-2.4338,-2.4256,-2.4331,-2.4381,-2.4322,-2.442,-2.4432,-2.4469,-2.4586,-2.4638,-2.4602,-2.4827,-2.4754,-2.4766,-2.4772,-2.4839,-2.4863,-2.4885,-2.4597,-2.4596,-2.4594,0,0,-2.4279,-2.43,-2.439,-2.4414,-2.4451,-2.4448,-2.447,-2.4497,-2.4503,-2.46,-2.4557,-2.4616,-2.472,-2.4749,-2.4777,-2.495,-2.4916,-2.4968,-2.5065,-2.5134,-2.5154,-2.5172,-2.5236,-2.5258,-2.4982,-2.4982,-2.4982,0,-2.4364,-2.4463,-2.444,-2.4518,-2.4551,-2.4498,-2.4589,-2.4615,-2.4668,-2.4692,-2.4649,-2.4778,-2.48,-2.4923,-2.4965,-2.4989,-2.5013,-2.4966,-2.5153,-2.5171,-2.5187,-2.5248,-2.5271,-2.4989,-2.4988,-2.4987,-2.4987,0,-2.4565,-2.4635,-2.4703,-2.4755,-2.4794,-2.4879,-2.4869,-2.4912,-2.4892,-2.4894,-2.4994,-2.5017,-2.5077,-2.5104,-2.5085,-2.5225,-2.5201,-2.5156,-2.5081,-2.5219,-2.5275,-2.5298,-2.4998,-2.4995,-2.4994,-2.4992,0,0,-2.4792,-2.4828,-2.4854,-2.4877,-2.4912,-2.4966,-2.5047,-2.5105,-2.5143,-2.518,-2.5249,-2.5337,-2.5295,-2.5327,-2.5311,-2.5371,-2.5508,-2.5318,-2.5319,-2.5355,-2.5664,-2.57,-2.5727,-2.5484,-2.5488,-2.5491,-2.5662,0,-2.4959,-2.5101,-2.5081,-2.5218,-2.5282,-2.5232,-2.5303,-2.5332,-2.5335,-2.5391,-2.5394,-2.5458,-2.5396,-2.5416,-2.5472,-2.5479,-2.557,-2.5466,-2.5549,-2.5553,-2.5545,-2.5756,-2.5795,-2.5955,-2.5684,-2.5687,-2.569,0,-2.5174,-2.5219,-2.5361,-2.5386,-2.5412,-2.5476,-2.5527,-2.558,-2.5612,-2.561,-2.5645,-2.5617,-2.5699,-2.562,-2.5734,-2.5663,-2.5695,-2.5704,-2.571,-2.5719,-2.5632,-2.5775,-2.6005,-2.6031,-2.5724,-2.5721,-2.5719,0,-2.5328,-2.5423,-2.5521,-2.5542,-2.5572,-2.5619,-2.5634,-2.5661,-2.5697,-2.5741,-2.5764,-2.5817,-2.5848,-2.589,-2.5877,-2.5821,-2.5994,-2.5914,-2.5996,-2.5997,-2.6038,-2.6036,-2.628,-2.6054,-2.6054,-2.6053,-2.6053,0,-2.5519,-2.5609,-2.5591,-2.5652,-2.575,-2.5726,-2.5825,-2.5834,-2.5858,-2.592,-2.5878,-2.5937,-2.5916,-2.5974,-2.5964,-2.606,-2.6073,-2.6075,-2.6072,-2.6081,-2.6081,-2.6104,-2.6094,-2.6059,-2.6058,-2.6057,-2.6056,0,-2.571,-2.5701,-2.5805,-2.5824,-2.5831,-2.5903,-2.592,-2.5977,-2.5975,-2.6054,-2.6071,-2.6069,-2.6135,-2.6125,-2.6199,-2.6192,-2.6312,-2.6294,-2.6302,-2.6299,-2.6383,-2.6376,-2.6653,-2.6689,-2.6437,-2.6439,-2.6441,0,-2.5834,-2.5901,-2.5927,-2.5965,-2.5983,-2.6045,-2.608,-2.6059,-2.6098,-2.6138,-2.6191,-2.6252,-2.63,-2.6407,-2.6413,-2.6469,-2.6454,-2.6546,-2.6462,-2.6468,-2.6458,-2.6455,-2.6463,-2.6565,-2.6567,-2.657,-2.6572,0,-2.6055,-2.6047,-2.61,-2.6151,-2.6194,-2.6234,-2.6269,-2.6303,-2.6284,-2.633,-2.6396,-2.6433,-2.6507,-2.6569,-2.6621,-2.6636,-2.6602,-2.6597,-2.662,-2.6631,-2.6634,-2.6636,-2.6351,-2.6592,-2.659,-2.6589,-2.6588,-2.6587,-2.6218,-2.6276,-2.6303,-2.6363,-2.6387,-2.6421,-2.6475,-2.648,-2.6534,-2.6592,-2.6575,-2.6651,-2.668,-2.6745,-2.6766,-2.6825,-2.6791,-2.6823,-2.6832,-2.6841,-2.6852,-2.6621,-2.6834,-2.6833,-2.6833,-2.6832,-2.6832,0,-2.6439,-2.6454,-2.6509,-2.6559,-2.6607,-2.6567,-2.6604,-2.6646,-2.6713,-2.6742,-2.679,-2.6866,-2.6925,-2.6934,-2.6991,-2.7036,-2.7022,-2.7052,-2.705,-2.7054,-2.6878,-2.6854,-2.7062,-2.7062,-2.7062,-2.7062,-2.7062,-2.7062,-2.6561,-2.6657,-2.6652,-2.6759,-2.6773,-2.6846,-2.687,-2.6901,-2.6924,-2.7011,-2.7059,-2.7064,-2.7086,-2.7143,-2.7196,-2.7197,-2.7221,-2.7258,-2.7253,-2.7089,-2.7066,-2.7045,-2.7022,-2.7262,-2.7263,-2.7425,-2.7426,-2.7427]},{"header":{"parameterUnit":"m.s-1","parameterCategory":1,"la1":30.2991,"la2":30.254,"lo1":-89.0895,"lo2":-89.0444,"dy":0.0017,"dx":0.0017,"nx":28,"ny":28,"refTime":"2025-01-14T09:00:00:Z","depth":0,"parameterNumber":3,"parameterNumberName":"V-component_of_WINDS"},"data":[0,0,0,0,0,0,0,0,0,0,0,0,0,0,0,0,0,0,0,0,0,0,0,0,0,0,0,0,0,0,0,0,0,0,0,0,0,0,0,0,0,0,0,0,0,0,0,0,0,0,0,0,0,0,0,0,0,0,-5.2702,-5.2703,0,-5.2803,-5.2804,-5.2805,-5.2734,-5.2731,-5.2727,-5.2724,-5.2824,-5.283,-5.2835,0,0,0,0,0,0,0,0,0,0,0,0,0,-5.2441,-5.2447,-5.2701,-5.2703,-5.2704,-5.2803,-5.2804,-5.2805,-5.2734,-5.273,-5.2727,-5.2723,-5.2822,-5.2829,-5.2836,0,0,0,0,0,0,0,0,0,0,0,0,0,-5.255,-5.2448,-5.2701,-5.268,-5.268,-5.2802,-5.2804,-5.2806,-5.2735,-5.273,-5.2726,-5.2721,-5.282,-5.2828,-5.2837,-5.2984,0,0,-5.2862,-5.2866,0,0,0,0,0,0,0,0,-5.2544,-5.2559,-5.2682,-5.2682,-5.2681,-5.2751,-5.2749,-5.2865,-5.2736,-5.2714,-5.2724,-5.2719,-5.2803,-5.2813,-5.2842,-5.2989,-5.2993,-5.2863,-5.2868,-5.2872,-5.2874,0,0,0,0,0,0,0,-5.2536,-5.2554,-5.2741,-5.2684,-5.2684,-5.2664,-5.2675,-5.2771,-5.2784,-5.2716,-5.2711,-5.2724,-5.2802,-5.2834,-5.2844,-5.2995,-5.2863,-5.287,-5.2876,-5.2879,-5.3266,-5.327,0,0,0,0,0,0,-5.2531,-5.2549,-5.2738,-5.2744,-5.2599,-5.2673,-5.2684,-5.2733,-5.2783,-5.2786,-5.2728,-5.272,-5.2822,-5.2834,-5.2847,-5.3023,-5.2872,-5.288,-5.2885,-5.326,-5.3267,-5.3272,0,0,0,0,0,0,-5.2526,-5.2549,-5.2734,-5.2645,-5.2667,-5.2683,-5.2738,-5.2738,-5.277,-5.2792,-5.2794,-5.2759,-5.2819,-5.2835,-5.2951,-5.3025,-5.2884,-5.2891,-5.3254,-5.3262,-5.327,-5.3375,0,0,0,0,0,0,-5.2519,-5.2547,-5.2605,-5.2647,-5.2672,-5.2838,-5.2743,-5.2743,-5.2785,-5.2776,-5.2821,-5.2824,-5.2817,-5.2938,-5.2959,-5.3034,-5.2898,-5.3248,-5.3258,-5.3267,-5.3365,-5.3386,-5.3404,0,0,0,0,0,-5.251,-5.263,-5.2608,-5.2631,-5.2745,-5.2842,-5.2856,-5.2846,-5.2791,-5.2849,-5.2862,-5.2823,-5.3014,-5.2951,-5.2973,-5.3052,-5.3243,-5.3255,-5.3266,-5.3357,-5.3382,-5.3403,0,0,0,0,0,0,-5.2595,-5.2635,-5.2611,-5.2749,-5.2793,-5.283,-5.2902,-5.2873,-5.2932,-5.2921,-5.2905,-5.2915,-5.3036,-5.3055,-5.2985,-5.3197,-5.3119,-5.3136,-5.318,-5.3204,-5.3223,-5.3216,-5.2905,0,0,0,0,0,-5.263,-5.2707,-5.2737,-5.2856,-5.2879,-5.2887,-5.2929,-5.2917,-5.2961,-5.2979,-5.3001,-5.3044,-5.3113,-5.316,-5.3225,-5.3367,-5.3375,-5.3432,-5.3451,-5.3467,-5.3482,-5.3558,-5.3583,-5.3311,-5.3311,-5.331,0,0,-5.2703,-5.2734,-5.2784,-5.2874,-5.2906,-5.2985,-5.2903,-5.299,-5.3048,-5.2991,-5.3102,-5.312,-5.3166,-5.3296,-5.3354,-5.3316,-5.3559,-5.3482,-5.3494,-5.3501,-5.3572,-5.3598,-5.3621,-5.3319,-5.3317,-5.3316,0,0,-5.2876,-5.2908,-5.301,-5.3044,-5.3095,-5.3099,-5.3124,-5.3165,-5.3175,-5.3286,-5.3245,-5.3312,-5.3433,-5.3467,-5.3501,-5.3686,-5.3651,-5.3707,-5.3807,-5.3881,-5.3903,-5.3921,-5.3987,-5.4011,-5.3722,-5.3722,-5.3722,0,-5.296,-5.3079,-5.3066,-5.3156,-5.3196,-5.315,-5.3252,-5.3286,-5.3354,-5.3382,-5.3339,-5.3488,-5.3516,-5.3653,-5.3698,-5.3726,-5.3753,-5.3702,-5.3901,-5.392,-5.3937,-5.4,-5.4024,-5.3728,-5.3728,-5.3727,-5.3726,0,-5.3179,-5.3262,-5.3338,-5.3407,-5.3455,-5.3551,-5.3551,-5.3602,-5.3585,-5.3593,-5.3706,-5.3738,-5.3808,-5.3839,-5.3824,-5.3974,-5.3948,-5.3903,-5.3825,-5.397,-5.4028,-5.4052,-5.3738,-5.3735,-5.3733,-5.3732,0,0,-5.3411,-5.3471,-5.3499,-5.3529,-5.3581,-5.3644,-5.3736,-5.3806,-5.3849,-5.3897,-5.3974,-5.4076,-5.4035,-5.4073,-5.406,-5.4125,-5.4269,-5.4072,-5.4072,-5.4107,-5.4435,-5.4469,-5.4498,-5.4246,-5.425,-5.4254,-5.4431,0,-5.3587,-5.3751,-5.3741,-5.3894,-5.397,-5.3926,-5.4006,-5.4045,-5.4055,-5.4119,-5.4128,-5.4202,-5.4141,-5.4164,-5.4226,-5.4239,-5.4335,-5.4225,-5.4316,-5.4319,-5.4307,-5.4528,-5.4565,-5.4731,-5.4454,-5.4458,-5.4461,0,-5.3815,-5.3872,-5.4034,-5.4073,-5.4104,-5.4177,-5.424,-5.4302,-5.4345,-5.4347,-5.4389,-5.4366,-5.4457,-5.4376,-5.4502,-5.4428,-5.4463,-5.4475,-5.4481,-5.449,-5.44,-5.4543,-5.4784,-5.4809,-5.4496,-5.4494,-5.4491,0,-5.3968,-5.4085,-5.4196,-5.4224,-5.4272,-5.4324,-5.4347,-5.4385,-5.4427,-5.4481,-5.4509,-5.4572,-5.4607,-5.4656,-5.465,-5.4591,-5.4777,-5.4696,-5.4781,-5.4781,-5.4823,-5.482,-5.5073,-5.4845,-5.4845,-5.4844,-5.4844,0,-5.4166,-5.4267,-5.4266,-5.4335,-5.4445,-5.4432,-5.4541,-5.4557,-5.4591,-5.4661,-5.4625,-5.4691,-5.4678,-5.4743,-5.4738,-5.4843,-5.4858,-5.4862,-5.486,-5.4866,-5.4866,-5.489,-5.4878,-5.4851,-5.4849,-5.4848,-5.4847,0,-5.4356,-5.436,-5.4479,-5.4515,-5.4526,-5.4606,-5.4636,-5.47,-5.4706,-5.4795,-5.4814,-5.4824,-5.4898,-5.4896,-5.4981,-5.4977,-5.5106,-5.509,-5.5092,-5.5089,-5.5174,-5.5167,-5.5452,-5.5489,-5.5237,-5.5239,-5.5241,0,-5.4483,-5.456,-5.4604,-5.4649,-5.4675,-5.4748,-5.4791,-5.478,-5.4826,-5.488,-5.4937,-5.5008,-5.5065,-5.5186,-5.5199,-5.5263,-5.5249,-5.5344,-5.5258,-5.5262,-5.5251,-5.5247,-5.5254,-5.5362,-5.5365,-5.5367,-5.5369,0,-5.4708,-5.4706,-5.477,-5.4836,-5.4888,-5.4939,-5.4985,-5.5023,-5.5017,-5.507,-5.5147,-5.5191,-5.5277,-5.5348,-5.5409,-5.543,-5.5399,-5.5395,-5.5419,-5.5426,-5.5425,-5.5427,-5.5139,-5.5389,-5.5387,-5.5386,-5.5385,-5.5384,-5.4871,-5.4936,-5.4978,-5.505,-5.5084,-5.5128,-5.519,-5.5204,-5.5268,-5.5338,-5.5327,-5.5413,-5.5451,-5.5531,-5.5557,-5.5622,-5.5588,-5.5622,-5.5631,-5.5639,-5.5649,-5.5414,-5.5633,-5.5633,-5.5632,-5.5632,-5.5631,0,-5.5094,-5.5118,-5.5185,-5.5251,-5.5308,-5.5274,-5.5323,-5.5372,-5.5448,-5.5488,-5.5545,-5.5632,-5.57,-5.5719,-5.5784,-5.5833,-5.582,-5.585,-5.5847,-5.5852,-5.5676,-5.5649,-5.586,-5.586,-5.586,-5.586,-5.586,-5.586,-5.5217,-5.5326,-5.5328,-5.5453,-5.5475,-5.556,-5.5591,-5.5631,-5.5662,-5.5762,-5.5819,-5.5831,-5.5861,-5.5928,-5.5989,-5.5992,-5.6018,-5.6055,-5.6053,-5.5888,-5.5865,-5.5843,-5.5818,-5.6061,-5.6061,-5.6224,-5.6225,-5.6226]}]]